Saipan, MP

10:14 AM ChST on May 21, 2018 (GMT +1000)
Saipan International

Weather History for PGSN - March, 2014

Change the Weather History Date:

Saturday, March 22, 2014

  Actual Average Record
Temperature  
Mean Temperature 80 °F -  
Max Temperature 84 °F 82 °F 88 °F (2018)
Min Temperature 77 °F 74 °F 72 °F (2008)
Cooling Degree Days 16    
Growing Degree Days 30 (Base 50)    
Moisture  
Dew Point 71 °F    
Average Humidity 73    
Maximum Humidity 82    
Minimum Humidity 63    
Precipitation  
Precipitation 0.00 in - - ()
Sea Level Pressure  
Sea Level Pressure 29.96 in    
Wind  
Wind Speed 12 mph (East)    
Max Wind Speed 17 mph    
Max Gust Speed 21 mph    
Visibility 10 miles    
Events      
Averages and records for this station are not official NWS values.
T = Trace of Precipitation, MM = Missing Value Source: NWS Daily Summary

Daily Weather History Graph

Daily Weather History Graph

Search for Another Location

Airport or City:

Astronomy

Mar. 22, 2014 Rise Set
Actual Time 6:20 AM ChST 6:28 PM ChST
Civil Twilight 5:58 AM ChST 6:49 PM ChST
Nautical Twilight 5:33 AM ChST 7:14 PM ChST
Astronomical Twilight 5:09 AM ChST 7:39 PM ChST
Moon 11:24 PM ChST (3/22) 10:12 AM ChST (3/22)
Length of Visible Light 12h 50m
Length of Day
12h 07m
Waning Gibbous, 71% of the Moon is Illuminated
Mar 22
Waning Gibbous
Mar 24
Last Quarter
Mar 31
New
Apr 7
First Quarter
Apr 15
Full

Hourly Weather History & Observations

Time (ChST) Temp. Heat Index Dew Point Humidity Pressure Visibility Wind Dir Wind Speed Gust Speed Precip Events Conditions
12:54 AM 77.0 °F - 71.1 °F 82% 29.94 in 10.0 mi East 9.2 mph - N/A   Clear
1:54 AM 78.1 °F - 71.1 °F 79% 29.93 in 10.0 mi East 10.4 mph - N/A   Partly Cloudy
2:54 AM 77.0 °F - 71.1 °F 82% 29.92 in 10.0 mi East 10.4 mph - N/A   Clear
3:54 AM 78.1 °F - 70.0 °F 76% 29.92 in 10.0 mi ESE 11.5 mph - N/A   Partly Cloudy
4:54 AM 77.0 °F - 69.1 °F 76% 29.93 in 10.0 mi ESE 9.2 mph - N/A   Clear
5:54 AM 77.0 °F - 69.1 °F 76% 29.94 in 10.0 mi East 11.5 mph - N/A   Scattered Clouds
6:54 AM 78.1 °F - 70.0 °F 76% 29.97 in 10.0 mi East 10.4 mph - N/A   Scattered Clouds
7:54 AM 80.1 °F 83.2 °F 70.0 °F 71% 29.98 in 10.0 mi East 11.5 mph - N/A   Scattered Clouds
8:54 AM 82.0 °F 86.3 °F 71.1 °F 69% 30.00 in 10.0 mi East 12.7 mph - N/A   Partly Cloudy
9:54 AM 82.9 °F 87.5 °F 71.1 °F 67% 30.01 in 10.0 mi East 12.7 mph - N/A   Partly Cloudy
10:54 AM 84.9 °F 90.1 °F 71.1 °F 63% 30.00 in 10.0 mi East 13.8 mph - N/A   Clear
11:54 AM 84.9 °F 90.1 °F 71.1 °F 63% 29.98 in 10.0 mi East 15.0 mph - N/A   Partly Cloudy
12:54 PM 84.9 °F 90.1 °F 71.1 °F 63% 29.96 in 10.0 mi ENE 11.5 mph 18.4 mph N/A   Partly Cloudy
1:54 PM 84.0 °F 89.6 °F 72.0 °F 67% 29.94 in 10.0 mi ENE 13.8 mph - N/A   Partly Cloudy
2:54 PM 84.9 °F 90.1 °F 71.1 °F 63% 29.93 in 10.0 mi ENE 15.0 mph - N/A   Partly Cloudy
3:54 PM 84.0 °F 89.0 °F 71.1 °F 65% 29.94 in 10.0 mi ENE 16.1 mph - N/A   Clear
4:54 PM 82.9 °F 87.5 °F 71.1 °F 67% 29.94 in 10.0 mi ENE 13.8 mph - N/A   Partly Cloudy
5:54 PM 81.0 °F 85.2 °F 72.0 °F 74% 29.95 in 10.0 mi ENE 13.8 mph 20.7 mph N/A   Scattered Clouds
6:19 PM 80.6 °F 84.6 °F 71.6 °F 74% 29.89 in 10.0 mi ENE 15.0 mph - N/A   Mostly Cloudy
6:34 PM 78.8 °F - 71.6 °F 78% 29.90 in 10.0 mi ENE 17.3 mph - N/A   Scattered Clouds
6:54 PM 79.0 °F - 71.1 °F 77% 29.96 in 10.0 mi ENE 13.8 mph - N/A   Clear
7:54 PM 79.0 °F - 72.0 °F 79% 29.98 in 10.0 mi ENE 12.7 mph - N/A   Partly Cloudy
8:54 PM 79.0 °F - 72.0 °F 79% 29.99 in 10.0 mi ENE 16.1 mph - N/A   Scattered Clouds
9:54 PM 79.0 °F - 72.0 °F 79% 30.01 in 10.0 mi ENE 12.7 mph - N/A   Partly Cloudy
10:54 PM 79.0 °F - 73.0 °F 82% 30.01 in 10.0 mi East 13.8 mph - N/A   Partly Cloudy
11:54 PM 78.1 °F - 72.0 °F 81% 30.00 in 10.0 mi East 15.0 mph - 0.00 in   Partly Cloudy